www.pogodaiklimat.ru

Погода и климат >> Архив погоды >> Гана >> Бол


ПОГОДА в Боле

  • Прогноз погоды в Боле
  • Монитор погоды в Боле

АРХИВ ПОГОДЫ в Боле

Время (UTC), дата Ветер
(напр.,м/с)
 
Видим.   Явления Облачность Т
(С)
Тd
(С)
f
(%)
Тe
(С)
Тes
(С)
Комфортность P
(гПа)
Po
(гПа)
Тmin
(С)
Tmax
(С)
R
(мм)
R24
(мм)
S
(см)
21 17.05 ЮЗ 1 10 км гроза без осадков 9/9 360 м
[Cb cap]
+27.0 +24.3 85 +38 +38 очень
душно
1011.7 977.6
00 18.05 ЮЗ 2 10 км гроза, ливневой дождь 9/9 900 м
[Cb cap]
+24.0 +22.3 90 +31 +31 очень
душно
1015.6 981.0 13
03 18.05 штиль 0 10 км гроза без осадков 9/9 360 м
[Cb cap]
+23.5 +21.8 90 +30 +30 очень
душно
1013.3 978.8
06 18.05 ЮЗ 1 10 км {гроза, дождь} 8/3 360 м
[Sc Ac trans]
+23.0 +22.0 94 +31 +31 очень
душно
1011.4 976.9 +23.0 27
09 18.05 ЮЗ 2 15 км 9/4 360 м
[Sc Ac trans]
+26.5 +24.9 91 +38 +41 очень
душно
1013.2 979.0
12 18.05 ЮЗ 2 15 км 8/8 450 м
[Cu med, cong]
+30.5 +25.7 76 +45 +50 опасность
перегрева
1011.9 978.2
18 18.05 ЮЗ 1 15 км 9/1 500 м
[Cu med, cong Ac trans Cs]
+31.5 +24.9 68 +45 +45 опасность
перегрева
1010.3 976.8 +32.0
21 18.05 штиль 0 12 км 5/5 360 м
[Sc]
+28.5 +24.0 77 +40 +40 очень
душно
1011.6 977.7
00 19.05 штиль 0 10 км 3/0
[Ci sp]
+27.5 +22.2 73 +36 +36 очень
душно
1012.3 978.2
03 19.05 штиль 0 10 км 3/0
[Ci sp]
+26.4 +22.7 80 +35 +35 очень
душно
1011.8 977.6
06 19.05 штиль 0 10 км 4/1 360 м
[Sc Ac trans Ci sp]
+25.5 +23.1 87 +34 +34 очень
душно
1012.2 977.9 +25.5
09 19.05 ЮЗ 3 15 км 6/4 360 м
[Cu Sc Ac trans Ci sp]
+28.5 +24.7 80 +41 +45 опасность
перегрева
1012.2 978.3
12 19.05 ЮЗ 4 18 км 6/6 450 м
[Cu med, cong Ci sp]
+31.5 +25.6 71 +46 +53 опасность
перегрева
1012.3 978.7
15 19.05 СВ 2 16 км 5/5 480 м
[Cu med, cong Ci sp]
+33.0 +23.5 58 +44 +50 опасность
перегрева
1009.1 975.8
18 19.05 Ю 2 18 км 8/1 900 м
[Cb cap Ac trans Cs]
+31.5 +24.0 65 +43 +44 опасность
перегрева
1010.0 976.5 +33.0
21 19.05 ЮЗ 1 12 км 8/0
[Ac trans Cs]
+29.0 +24.5 77 +41 +41 опасность
перегрева
1011.5 977.6
03 20.05 ЮЗ 1 12 км 9/0
[Cs]
+26.5 +22.6 79 +35 +35 очень
душно
1012.4 978.2
06 20.05 СЗ 1 12 км 9/4 360 м
[Sc Ac trans]
+25.1 +23.3 90 +34 +34 очень
душно
1013.6 979.2 +25.1
21 20.05 Ю 4 15 км гроза без осадков 6/3 330 м
[Cb cap Ac trans]
+29.0 +23.0 70 +39 +39 очень
душно
1012.4 978.5
03 21.05 З 2 15 км 8/0
[Ac trans]
+22.4 +22.1 98 +30 +30 очень
душно
1012.5 977.9
09 21.05 ЮЗ 2 15 км 8/3 360 м
[Sc Ac trans Cs]
+26.5 +22.9 81 +35 +40 очень
душно
1014.7 980.5
12 21.05 З 2 18 км 8/3 450 м
[Cu med, cong Ac trans]
+30.0 +24.5 72 +42 +51 опасность
перегрева
1012.5 978.7
15 21.05 Ю 4 18 км 6/5 480 м
[Cu med, cong Ac trans]
+32.5 +23.9 61 +44 +48 опасность
перегрева
1010.4 977.0
18 21.05 ЮЗ 1 15 км 6/4 360 м
[Cu Sc Ci sp]
+28.0 +21.9 69 +36 +36 очень
душно
1010.1 976.2 +33.0
21 21.05 ЮЗ 1 12 км зарница 3/1 900 м
[Cb cap Ci sp]
+27.8 +24.4 82 +39 +39 очень
душно
1012.5 978.5
00 22.05 СЗ 1 12 км 3/0
[Ci sp]
+26.5 +24.2 87 +37 +37 очень
душно
1013.9 979.7
03 22.05 СЗ 2 12 км 5/0
[Ci sp]
+26.0 +24.3 90 +36 +36 очень
душно
1011.6 977.4
06 22.05 ЮЗ 1 12 км 9/0
[Ac trans Cs]
+25.0 +24.0 94 +34 +34 очень
душно
1012.1 977.8 +25.0
09 22.05 ЮЗ 2 12 км 9/4 360 м
[Sc Ac trans]
+26.8 +24.0 85 +37 +40 очень
душно
1013.7 979.5
12 22.05 штиль 0 14 км 9/9 360 м
[Cu Sc]
+28.8 +25.0 80 +42 +44 опасность
перегрева
1012.8 978.9
15 22.05 ЮЗ 1 14 км 8/3 480 м
[Cu med, cong Cs]
+31.0 +23.9 66 +43 +52 опасность
перегрева
1010.2 976.6
21 22.05 штиль 0 10 км ясно +28.0 +24.1 79 +39 +39 очень
душно
1011.6 977.6
00 23.05 штиль 0 10 км ясно +26.2 +23.8 87 +36 +36 очень
душно
1012.6 978.4
06 23.05 штиль 0 10 км 3/0
[]
+25.0 +23.6 92 +34 +34 очень
душно
1012.2 977.9 +25.0
09 23.05 ЮЗ 2 15 км 8/1 450 м
[Cu med, cong Cs]
+28.5 +22.5 70 +37 +46 очень
душно
1012.8 978.8
15 23.05 СВ 1 15 км 8/8 480 м
[Cu med, cong]
+35.0 +23.4 51 +46 +49 опасность
перегрева
1008.1 975.0
18 23.05 ЮЗ 2 15 км гроза без осадков 9/4 480 м
[Cb cap Ac trans]
+28.0 +21.1 66 +35 +35 очень
душно
1009.6 975.7 +35.0
21 23.05 ЮЗ 2 10 км 8/8 360 м
[Sc]
+25.5 +21.8 80 +33 +33 очень
душно
1012.7 978.4
00 24.05 ЮЗ 2 10 км 9/5 360 м
[Sc Ac trans]
+24.7 +21.4 82 +31 +31 очень
душно
1012.8 978.4
03 24.05 ЮЗ 1 10 км 8/4 360 м
[Sc Ac trans]
+24.2 +21.5 85 +31 +31 очень
душно
1010.9 976.5
06 24.05 СЗ 1 10 км 8/3 360 м
[Sc Cs]
+24.0 +21.4 85 +30 +30 очень
душно
1012.2 977.8 +23.5
09 24.05 ЮЗ 3 17 км 8/5 360 м
[Cu Sc Ci sp]
+26.0 +22.9 83 +35 +39 очень
душно
1014.7 980.4
15 24.05 З 2 17 км 5/4 480 м
[Cu med, cong Ci sp]
+32.0 +23.2 60 +43 +49 опасность
перегрева
1010.2 976.7
18 24.05 штиль 0 17 км 5/3 480 м
[Cb cap Ci sp]
+31.5 +22.6 59 +41 +41 опасность
перегрева
1009.6 976.1 +32.2

 

Местоположение метеостанции Бол (Гана): широта 9.03 долгота -2.48 высота над уровнем моря 301 м.

В архиве по умолчанию представлена погода в Боле за последнюю неделю. Архивные данные за месяц целиком и за предыдущие месяцы, начиная с января 2011 года, Вы можете получить, выбрав интересующий диапазон дат из раскрывающегося списка и нажав кнопку "Ввод!".


*Определитесь, кто Вы:
робот инопланетянин человек

Внимание! Время в таблицах - всемирное. Для получения местного времени необходимо прибавить поправку, которая равна 1 ч.

Смотрите также архив погоды в соседних городах и на ближайших метеорологических станциях:

Погода в Ва (Гана) (113 км)
Погода в Бондуку (Кот-д'Ивуар) (114 км)
Погода в Уэнчи (Гана) (148 км)
Погода в Гауа (Буркина-Фасо) (164 км)
Погода в Тамале (Гана) (186 км)
Погода в Суняни (Гана) (190 км)
Погода в Навронго (Гана) (257 км)
Погода в Йенди (Гана) (274 км)
Погода в Кумаси (Гана) (275 км)
Погода в По (Буркина-Фасо) (277 км)

Пояснения к столбцам:

Ветер - указаны скорость ветра в м/с - средняя за 10 мин, порывы в срок и между сроками (в фигурных скобках) и направление, откуда дует ветер: С - северный, СВ - северо-восточный, В - восточный, ЮВ - юго-восточный, Ю - южный, ЮЗ - юго-западный, З - западный, СЗ - северо-западный.
Видимость - горизонтальная дальность видимости в метрах или километрах. При видимости от 1 до 10 км при отсутствии осадков обычно наблюдается дымка, при ухудшении видимости до 1 км и менее - туман. В сухую погоду видимость может ухудшаться дымом, пылью или мглою.
Явления - указаны атмосферные явления, наблюдавшиеся в срок или в последний час перед сроком; фигурными скобками обозначены явления, наблюдавшиеся между сроками (за 1-3 часа до срока); квадратными скобками обозначены град или гололедные отложения с указанием их диаметра в мм.
Облачность - указаны через наклонную черту общая и нижняя облачность в баллах и высота нижней границы облаков в метрах; квадратными скобками обозначены формы облаков: Ci - перистые, Cs - перисто-слоистые, Cc - перисто-кучевые, Ac - высококучевые, As - высокослоистые, Sc - слоисто-кучевые, Ns - слоисто-дождевые, Cu - кучевые, Cb - кучево-дождевые. Подробнее классификацию облаков см. в Атласе облаков (PDF).
T - Температура воздуха - температура, измеренная на высоте 2 м над землей.
Td - Температура точки росы - температура, при понижении до которой содержащийся в воздухе водяной пар достигнет насыщения.
f - Относительная влажность воздуха - влажноcть воздуха, измеренная на высоте 2 м над землей.
Te - Эффективная температура - температура, которую ощущает одетый по сезону человек в тени. Характеристика душности погоды. При расчете учитывается влияние влажности воздуха и скорости ветра на теплоощущения человека.
Tes - Эффективная температура на солнце - температура, которую ощущает человек, с поправкой на солнечный нагрев. Характеристика знойности погоды. Зависит от высоты солнца над горизонтом, облачности и скорости ветра. Ночью, в пасмурную погоду, а также при ветре 12 м/с и более поправка равна нулю.
P - Атмосферное давление - приведенное к уровню моря атмосферное давление.
Po - Атмосферное давление - измеренное на уровне метеостанции атмосферное давление.
Tmin - Минимальная температура - минимум температуры воздуха на высоте 2 м над землей.
Tmax - Максимальная температура - максимум температуры воздуха на высоте 2 м над землей.
R - Количество осадков - Количество выпавших осадков за период времени, мм. При наведении курсора мыши на число - период времени, за который выпало указанное количество осадков.
R24 - Количество осадков - Количество выпавших осадков за 24 часа, мм.
S - Снежный покров - Высота снежного покрова, см. При наведении курсора мыши на число - состояние снежного покрова и степень покрытия местности в баллах.